Weather History for Paso Robles, CA

Change the Weather History Date:

Tuesday, November 26, 2013

  Actual Average Record
Temperature  
Mean Temperature 52 °F 49 °F  
Max Temperature 69 °F 63 °F 82 °F (1959)
Min Temperature 34 °F 36 °F 23 °F (1993)
Degree Days  
Heating Degree Days 13 16  
Month to date heating degree days 260 313  
Since 1 July heating degree days 410 483  
Cooling Degree Days 0 0  
Month to date cooling degree days 0 0  
Year to date cooling degree days 1173 926  
Growing Degree Days 0 (Base 50)    
Moisture  
Dew Point 38 °F    
Average Humidity 68    
Maximum Humidity 96    
Minimum Humidity 40    
Precipitation  
Precipitation 0.00 in 0.04 in 0.78 in (1997)
Month to date precipitation 0.27 0.88  
Year to date precipitation 1.75 10.62  
Since 1 July precipitation 0.29 1.83  
Sea Level Pressure  
Sea Level Pressure 30.16 in    
Wind  
Wind Speed 3 mph (ESE)    
Max Wind Speed 10 mph    
Max Gust Speed -    
Visibility 7 miles    
Events      
T = Trace of Precipitation, MM = Missing Value Source: NWS Daily Summary

Daily Weather History Graph

Daily Weather History Graph

Search for Another Location

Airport:

Trip Planner

Search our weather history database for the weather conditions in past years. The results will help you decide how hot, cold, wet, or windy it might be!

Date:

Astronomy

Nov. 26, 2013 Rise Set
Actual Time 6:49 AM PST 4:50 PM PST
Civil Twilight 6:21 AM PST 5:18 PM PST
Nautical Twilight 5:50 AM PST 5:49 PM PST
Astronomical Twilight 5:19 AM PST 6:20 PM PST
Moon 12:10 AM PST 12:47 PM PST
Length of Visible Light 10h 56m
Length of Day
10h 00m
Last Quarter, 40% of the Moon is Illuminated
Nov 26
Last Quarter
Dec 2
New
Dec 9
First Quarter
Dec 17
Full
Dec 25
Last Quarter

Hourly Weather History & Observations

Time (PST) Temp. Windchill Dew Point Humidity Pressure Visibility Wind Dir Wind Speed Gust Speed Precip Events Conditions
12:53 AM 43.0 °F 41.3 °F 37.0 °F 80% 30.25 in 7.0 mi ENE 3.5 mph - N/A   Clear
1:53 AM 39.9 °F 37.8 °F 35.1 °F 83% 30.24 in 5.0 mi NNE 3.5 mph - N/A   Haze
2:53 AM 39.0 °F - 35.1 °F 86% 30.24 in 6.0 mi Calm Calm - N/A   Clear
3:53 AM 39.0 °F - 35.1 °F 86% 30.24 in 6.0 mi Calm Calm - N/A   Clear
4:53 AM 37.9 °F - 35.1 °F 89% 30.23 in 5.0 mi Calm Calm - N/A   Clear
5:53 AM 37.0 °F - 33.1 °F 86% 30.23 in 5.0 mi Calm Calm - N/A   Clear
6:53 AM 34.0 °F - 32.0 °F 92% 30.24 in 3.0 mi Calm Calm - N/A   Clear
7:03 AM 35.6 °F - 33.8 °F 93% 30.24 in 2.5 mi Calm Calm - N/A   Clear
7:53 AM 37.0 °F - 34.0 °F 89% 30.25 in 2.5 mi Calm Calm - N/A   Clear
8:14 AM 39.2 °F - 35.6 °F 87% 30.24 in 3.0 mi Calm Calm - N/A   Clear
8:53 AM 43.0 °F 41.3 °F 37.0 °F 80% 30.24 in 6.0 mi Variable 3.5 mph - N/A   Haze
9:53 AM 48.9 °F - 37.9 °F 66% 30.23 in 10.0 mi Calm Calm - N/A   Clear
10:53 AM 54.0 °F - 39.0 °F 57% 30.20 in 10.0 mi NW 3.5 mph - N/A   Clear
11:53 AM 57.9 °F - 41.0 °F 53% 30.16 in 9.0 mi West 5.8 mph - N/A   Clear
12:53 PM 62.1 °F - 42.1 °F 48% 30.12 in 9.0 mi Variable 3.5 mph - N/A   Clear
1:53 PM 66.0 °F - 41.0 °F 40% 30.09 in 9.0 mi Calm Calm - N/A   Clear
2:53 PM 66.9 °F - 41.0 °F 39% 30.07 in 10.0 mi Calm Calm - N/A   Clear
3:53 PM 66.9 °F - 41.0 °F 39% 30.06 in 10.0 mi Calm Calm - N/A   Clear
4:53 PM 63.0 °F - 41.0 °F 45% 30.06 in 10.0 mi North - - N/A   Clear
5:53 PM 60.1 °F - 41.0 °F 49% 30.08 in 8.0 mi East 10.4 mph - N/A   Clear
6:53 PM 57.0 °F - 42.1 °F 57% 30.09 in 7.0 mi SSE 4.6 mph - N/A   Clear
7:53 PM 55.0 °F - 42.1 °F 62% 30.09 in 6.0 mi SE 5.8 mph - N/A   Haze
8:53 PM 52.0 °F - 41.0 °F 66% 30.09 in 6.0 mi SE 5.8 mph - N/A   Haze
9:53 PM 50.0 °F - 41.0 °F 71% 30.09 in 6.0 mi SSE 4.6 mph - N/A   Haze
10:53 PM 51.1 °F - 41.0 °F 68% 30.07 in 6.0 mi SE 5.8 mph - N/A   Haze
11:53 PM 50.0 °F - 41.0 °F 71% 30.06 in 5.0 mi Calm Calm - N/A   Haze